TimeMST,TemperatureF,Dew PointF,Humidity,Sea Level PressureIn,VisibilityMPH,Wind Direction,Wind SpeedMPH,Gust SpeedMPH,PrecipitationIn,Events,Conditions,WindDirDegrees,DateUTC
12:10 AM,33.8,32.0,93,29.66,5.0,West,4.6,-,N/A,,Clear,260,2013-03-09 07:10:00
12:35 AM,33.8,32.0,93,29.66,4.0,WSW,6.9,-,N/A,,Clear,250,2013-03-09 07:35:00
12:53 AM,33.8,32.0,93,29.66,5.0,WSW,4.6,-,N/A,,Clear,250,2013-03-09 07:53:00
1:15 AM,32.0,32.0,100,29.66,4.0,WSW,5.8,-,N/A,,Clear,250,2013-03-09 08:15:00
1:35 AM,32.0,32.0,100,29.64,4.0,West,5.8,-,N/A,,Clear,280,2013-03-09 08:35:00
1:55 AM,32.0,32.0,100,29.64,4.0,West,6.9,-,N/A,,Clear,260,2013-03-09 08:55:00
2:14 AM,32.0,32.0,100,29.63,4.0,West,5.8,-,N/A,,Clear,260,2013-03-09 09:14:00
2:35 AM,33.8,32.0,93,29.63,4.0,West,4.6,-,N/A,,Mostly Cloudy,270,2013-03-09 09:35:00
2:52 AM,33.8,32.0,93,29.62,3.0,West,4.6,-,N/A,,Overcast,280,2013-03-09 09:52:00
3:16 AM,33.8,33.8,100,29.63,4.0,West,4.6,-,N/A,,Overcast,260,2013-03-09 10:16:00
3:36 AM,33.8,32.0,93,29.63,3.0,WNW,4.6,-,N/A,,Overcast,290,2013-03-09 10:36:00
3:53 AM,33.8,32.0,93,29.63,3.0,West,6.9,-,N/A,,Overcast,270,2013-03-09 10:53:00
4:13 AM,33.8,32.0,93,29.63,3.0,WNW,5.8,-,N/A,,Overcast,290,2013-03-09 11:13:00
4:31 AM,33.8,32.0,93,29.64,5.0,NW,4.6,-,N/A,,Overcast,310,2013-03-09 11:31:00
4:52 AM,33.8,32.0,93,29.64,5.0,WNW,4.6,-,N/A,,Overcast,300,2013-03-09 11:52:00
5:13 AM,33.8,32.0,93,29.64,5.0,NW,6.9,-,N/A,,Overcast,310,2013-03-09 12:13:00
5:36 AM,33.8,32.0,93,29.64,4.0,NW,9.2,-,N/A,,Overcast,320,2013-03-09 12:36:00
5:49 AM,33.8,32.0,93,29.64,3.0,NW,10.4,-,N/A,Snow,Light Snow,320,2013-03-09 12:49:00
6:10 AM,33.8,32.0,93,29.66,3.0,NNW,9.2,-,N/A,Snow,Light Snow,340,2013-03-09 13:10:00
6:36 AM,33.8,32.0,93,29.66,1.8,NNW,8.1,-,N/A,,Overcast,340,2013-03-09 13:36:00
6:50 AM,33.8,32.0,93,29.67,0.5,NW,10.4,-,N/A,Snow,Snow,320,2013-03-09 13:50:00
6:56 AM,32.0,32.0,100,29.67,1.0,NNW,10.4,-,N/A,Snow,Light Snow,340,2013-03-09 13:56:00
7:09 AM,33.8,32.0,93,29.66,0.2,North,17.3,-,N/A,Snow,Light Snow,350,2013-03-09 14:09:00
7:50 AM,33.8,32.0,93,29.68,0.5,NNW,16.1,20.7,N/A,Snow,Light Snow,340,2013-03-09 14:50:00
9:48 AM,32.0,32.0,100,29.72,0.8,NNW,20.7,-,N/A,Snow,Light Snow,330,2013-03-09 16:48:00
10:48 AM,32.0,32.0,100,29.74,0.5,NNW,17.3,-,N/A,Snow,Light Snow,330,2013-03-09 17:48:00
11:50 AM,33.8,32.0,93,29.75,0.8,NNW,24.2,-,N/A,Snow,Light Snow,340,2013-03-09 18:50:00
12:48 PM,32.0,32.0,100,29.76,0.5,North,24.2,-,N/A,Snow,Light Snow,350,2013-03-09 19:48:00
1:48 PM,32.0,30.2,93,29.78,0.5,NNW,29.9,38.0,N/A,Snow,Light Snow,330,2013-03-09 20:48:00
2:50 PM,32.0,30.2,93,29.81,0.5,North,23.0,34.5,N/A,Snow,Snow,350,2013-03-09 21:50:00
3:48 PM,32.0,30.2,93,29.83,0.5,NNW,25.3,29.9,N/A,Snow,Snow,340,2013-03-09 22:48:00
4:48 PM,32.0,28.4,87,29.85,2.0,North,25.3,34.5,N/A,Snow,Light Snow,360,2013-03-09 23:48:00
5:30 PM,33.8,26.6,75,29.87,7.0,North,23.0,33.4,N/A,,Overcast,350,2013-03-10 00:30:00
5:48 PM,33.8,26.6,75,29.88,10.0,North,29.9,34.5,N/A,,Overcast,350,2013-03-10 00:48:00
6:48 PM,30.2,24.8,80,29.92,20.0,North,25.3,32.2,N/A,,Scattered Clouds,360,2013-03-10 01:48:00
7:48 PM,28.4,23.0,80,29.95,20.0,North,31.1,38.0,N/A,,Scattered Clouds,360,2013-03-10 02:48:00
8:56 PM,28.4,21.2,74,30.01,10.0,North,24.2,-,N/A,,Clear,350,2013-03-10 03:56:00
9:16 PM,28.4,21.2,74,30.03,10.0,North,18.4,-,N/A,,Scattered Clouds,360,2013-03-10 04:16:00
9:36 PM,26.6,19.4,74,30.04,10.0,North,17.3,-,N/A,,Scattered Clouds,350,2013-03-10 04:36:00
9:56 PM,26.6,19.4,74,30.04,10.0,NNW,18.4,-,N/A,,Clear,340,2013-03-10 04:56:00
10:16 PM,26.6,19.4,74,30.04,10.0,NNW,17.3,-,N/A,,Clear,340,2013-03-10 05:16:00
10:36 PM,26.6,19.4,74,30.05,10.0,NNW,18.4,-,N/A,,Clear,330,2013-03-10 05:36:00
10:56 PM,26.6,17.6,69,30.05,10.0,NNW,17.3,-,N/A,,Scattered Clouds,330,2013-03-10 05:56:00
11:15 PM,26.6,17.6,69,30.05,10.0,NNW,16.1,-,N/A,,Scattered Clouds,330,2013-03-10 06:15:00
11:35 PM,26.6,17.6,69,30.05,10.0,NNW,16.1,-,N/A,,Scattered Clouds,340,2013-03-10 06:35:00
11:56 PM,23.0,15.8,74,30.05,10.0,NW,8.1,-,N/A,,Scattered Clouds,310,2013-03-10 06:56:00